| time (UTC) | temp F | wind direction | speed MPH | gust MPH | rain 1hr in | rain 24hr in | rain mn in | humidity % | barometer mb |
| 20260906223556 | 60 | 315 | 1.0 | 4.0 | 0.00 | 0.03 | 0.02 | 75 | 1017.9 |
| 20260906223056 | 61 | 315 | 3.0 | 8.0 | 0.00 | 0.03 | 0.02 | 74 | 1017.9 |
| 20260906222516 | 61 | 315 | 3.0 | 9.0 | 0.00 | 0.03 | 0.02 | 73 | 1017.9 |
| 20260906222036 | 61 | 293 | 1.0 | 3.0 | 0.00 | 0.03 | 0.02 | 73 | 1017.9 |
| 20260906221516 | 62 | 315 | 3.0 | 8.0 | 0.00 | 0.03 | 0.02 | 72 | 1017.8 |
| 20260906221016 | 62 | 315 | 4.0 | 8.0 | 0.00 | 0.03 | 0.02 | 72 | 1017.8 |
| 20260906220516 | 62 | 315 | 3.0 | 7.0 | 0.00 | 0.03 | 0.02 | 71 | 1017.9 |
| 20260906220016 | 63 | 315 | 4.0 | 11.0 | 0.00 | 0.03 | 0.02 | 70 | 1017.8 |
| 20260906215515 | 63 | 315 | 5.0 | 11.0 | 0.00 | 0.03 | 0.02 | 71 | 1017.8 |
| 20260906215016 | 62 | 315 | 5.0 | 11.0 | 0.00 | 0.03 | 0.02 | 72 | 1017.8 |
| 20260906214516 | 62 | 315 | 7.0 | 13.0 | 0.00 | 0.03 | 0.02 | 72 | 1017.8 |
| 20260906214056 | 63 | 315 | 5.0 | 11.0 | 0.00 | 0.03 | 0.02 | 72 | 1017.7 |
| 20260906213516 | 63 | 315 | 4.0 | 8.0 | 0.00 | 0.03 | 0.02 | 71 | 1017.8 |
| 20260906213036 | 63 | 315 | 4.0 | 13.0 | 0.00 | 0.03 | 0.02 | 72 | 1017.8 |
| 20260906212516 | 64 | 315 | 3.0 | 12.0 | 0.00 | 0.03 | 0.02 | 70 | 1017.7 |
| 20260906212016 | 64 | 315 | 3.0 | 9.0 | 0.00 | 0.03 | 0.02 | 71 | 1017.7 |
| 20260906211516 | 64 | 315 | 4.0 | 9.0 | 0.00 | 0.03 | 0.02 | 73 | 1017.6 |
| 20260906211016 | 64 | 315 | 5.0 | 10.0 | 0.00 | 0.03 | 0.02 | 72 | 1017.6 |
| 20260906210516 | 64 | 315 | 5.0 | 10.0 | 0.00 | 0.03 | 0.02 | 72 | 1017.6 |
| 20260906210016 | 64 | 315 | 7.0 | 18.0 | 0.00 | 0.03 | 0.02 | 71 | 1017.5 |
| 20260906205536 | 64 | 315 | 5.0 | 15.0 | 0.00 | 0.03 | 0.02 | 72 | 1017.5 |
| 20260906205015 | 64 | 315 | 6.0 | 11.0 | 0.00 | 0.03 | 0.02 | 73 | 1017.5 |
| 20260906204516 | 64 | 315 | 6.0 | 18.0 | 0.00 | 0.03 | 0.02 | 73 | 1017.5 |
| 20260906204016 | 64 | 315 | 7.0 | 17.0 | 0.00 | 0.03 | 0.02 | 72 | 1017.5 |
| 20260906203516 | 64 | 315 | 4.0 | 15.0 | 0.00 | 0.03 | 0.02 | 72 | 1017.4 |
| 20260906203016 | 64 | 315 | 6.0 | 12.0 | 0.00 | 0.03 | 0.02 | 75 | 1017.4 |
| 20260906202536 | 64 | 315 | 6.0 | 15.0 | 0.00 | 0.03 | 0.02 | 73 | 1017.4 |
| 20260906202016 | 64 | 315 | 6.0 | 14.0 | 0.00 | 0.03 | 0.02 | 74 | 1017.4 |
| 20260906201515 | 64 | 315 | 6.0 | 15.0 | 0.00 | 0.03 | 0.02 | 74 | 1017.4 |
| 20260906201113 | 64 | 315 | 7.0 | 14.0 | 0.00 | 0.03 | 0.02 | 73 | 1017.3 |
| 20260906200516 | 64 | 315 | 5.0 | 13.0 | 0.00 | 0.03 | 0.02 | 74 | 1017.3 |
| 20260906200056 | 64 | 315 | 6.0 | 14.0 | 0.00 | 0.03 | 0.02 | 74 | 1017.3 |
| 20260906195516 | 64 | 315 | 5.0 | 12.0 | 0.00 | 0.03 | 0.02 | 75 | 1017.2 |
| 20260906195016 | 64 | 315 | 3.0 | 8.0 | 0.00 | 0.03 | 0.02 | 74 | 1017.1 |
| 20260906194516 | 64 | 315 | 7.0 | 17.0 | 0.00 | 0.03 | 0.02 | 75 | 1017.1 |
| 20260906194016 | 64 | 315 | 5.0 | 11.0 | 0.00 | 0.03 | 0.02 | 74 | 1017.2 |
| 20260906193516 | 64 | 315 | 7.0 | 15.0 | 0.00 | 0.03 | 0.02 | 74 | 1017.3 |
| 20260906193016 | 64 | 315 | 6.0 | 12.0 | 0.00 | 0.03 | 0.02 | 73 | 1017.2 |
| 20260906192516 | 65 | 315 | 5.0 | 13.0 | 0.00 | 0.03 | 0.02 | 74 | 1017.1 |
| 20260906192016 | 65 | 315 | 5.0 | 11.0 | 0.00 | 0.03 | 0.02 | 75 | 1017.1 |
| 20260906191516 | 65 | 315 | 4.0 | 9.0 | 0.00 | 0.03 | 0.02 | 75 | 1017.1 |
| 20260906191016 | 64 | 315 | 6.0 | 14.0 | 0.00 | 0.03 | 0.02 | 76 | 1017.0 |
| 20260906190516 | 65 | 315 | 6.0 | 16.0 | 0.00 | 0.03 | 0.02 | 74 | 1017.1 |
| 20260906190016 | 65 | 338 | 5.0 | 11.0 | 0.00 | 0.03 | 0.02 | 75 | 1017.2 |
| 20260906185516 | 65 | 315 | 5.0 | 12.0 | 0.00 | 0.03 | 0.02 | 75 | 1017.2 |
| 20260906185016 | 64 | 315 | 4.0 | 10.0 | 0.00 | 0.03 | 0.02 | 79 | 1017.2 |
| 20260906184516 | 64 | 315 | 6.0 | 12.0 | 0.00 | 0.03 | 0.02 | 78 | 1017.2 |
| 20260906184036 | 64 | 315 | 4.0 | 9.0 | 0.00 | 0.03 | 0.02 | 77 | 1017.4 |
| 20260906183536 | 64 | 315 | 4.0 | 10.0 | 0.00 | 0.03 | 0.02 | 78 | 1017.4 |
| 20260906183016 | 64 | 315 | 4.0 | 14.0 | 0.00 | 0.03 | 0.02 | 77 | 1017.4 |
| 20260906182516 | 63 | 315 | 6.0 | 17.0 | 0.00 | 0.03 | 0.02 | 79 | 1017.4 |
| 20260906182016 | 63 | 315 | 5.0 | 10.0 | 0.00 | 0.03 | 0.02 | 80 | 1017.4 |
| 20260906181516 | 63 | 315 | 4.0 | 9.0 | 0.00 | 0.03 | 0.02 | 78 | 1017.4 |
| 20260906181016 | 63 | 315 | 5.0 | 10.0 | 0.00 | 0.03 | 0.02 | 79 | 1017.4 |
| 20260906180516 | 62 | 338 | 5.0 | 10.0 | 0.00 | 0.03 | 0.02 | 81 | 1017.4 |
| 20260906180016 | 62 | 315 | 6.0 | 12.0 | 0.00 | 0.03 | 0.02 | 82 | 1017.5 |
| 20260906175516 | 62 | 315 | 5.0 | 9.0 | 0.00 | 0.03 | 0.02 | 83 | 1017.5 |
| 20260906175016 | 62 | 315 | 4.0 | 14.0 | 0.00 | 0.03 | 0.02 | 84 | 1017.6 |
| 20260906174536 | 62 | 315 | 4.0 | 10.0 | 0.00 | 0.03 | 0.02 | 81 | 1017.7 |
| 20260906174016 | 62 | 315 | 3.0 | 7.0 | 0.00 | 0.03 | 0.02 | 83 | 1017.8 |
| 20260906173636 | 61 | 315 | 4.0 | 9.0 | 0.00 | 0.04 | 0.02 | 85 | 1017.8 |
| 20260906173016 | 60 | 315 | 3.0 | 8.0 | 0.00 | 0.04 | 0.02 | 87 | 1017.8 |
| 20260906172536 | 59 | 315 | 2.0 | 7.0 | 0.00 | 0.05 | 0.02 | 89 | 1017.9 |
| 20260906172016 | 58 | 315 | 3.0 | 7.0 | 0.00 | 0.05 | 0.02 | 91 | 1018.0 |
| 20260906171516 | 59 | 315 | 3.0 | 9.0 | 0.00 | 0.05 | 0.02 | 88 | 1018.0 |
| 20260906171016 | 60 | 315 | 2.0 | 5.0 | 0.00 | 0.05 | 0.02 | 87 | 1018.1 |
| 20260906170516 | 60 | 315 | 2.0 | 7.0 | 0.00 | 0.05 | 0.02 | 87 | 1018.0 |
| 20260906170016 | 60 | 315 | 5.0 | 11.0 | 0.00 | 0.05 | 0.02 | 87 | 1017.9 |
| 20260906165536 | 59 | 315 | 3.0 | 8.0 | 0.00 | 0.05 | 0.02 | 90 | 1017.8 |
| 20260906165016 | 59 | 315 | 4.0 | 8.0 | 0.00 | 0.05 | 0.02 | 90 | 1018.0 |
| 20260906164516 | 59 | 315 | 4.0 | 11.0 | 0.00 | 0.05 | 0.02 | 90 | 1018.1 |
| 20260906164016 | 59 | 315 | 5.0 | 11.0 | 0.00 | 0.05 | 0.02 | 89 | 1018.1 |
| 20260906163516 | 59 | 270 | 3.0 | 9.0 | 0.00 | 0.05 | 0.02 | 89 | 1018.1 |
| 20260906163036 | 58 | 315 | 2.0 | 4.0 | 0.00 | 0.05 | 0.02 | 91 | 1018.2 |
| 20260906162516 | 58 | 315 | 1.0 | 4.0 | 0.00 | 0.05 | 0.02 | 90 | 1018.1 |
| 20260906162016 | 59 | 315 | 3.0 | 7.0 | 0.00 | 0.05 | 0.02 | 90 | 1018.1 |
| 20260906161536 | 59 | 315 | 4.0 | 8.0 | 0.00 | 0.05 | 0.02 | 89 | 1018.1 |
| 20260906161016 | 59 | 315 | 3.0 | 6.0 | 0.00 | 0.05 | 0.02 | 89 | 1018.2 |
| 20260906160536 | 59 | 315 | 4.0 | 10.0 | 0.00 | 0.05 | 0.02 | 89 | 1018.2 |
| 20260906160016 | 60 | 338 | 2.0 | 6.0 | 0.00 | 0.05 | 0.02 | 88 | 1018.2 |
| 20260906155516 | 60 | 315 | 3.0 | 7.0 | 0.00 | 0.05 | 0.02 | 87 | 1018.2 |
| 20260906155016 | 60 | 315 | 5.0 | 11.0 | 0.00 | 0.05 | 0.02 | 89 | 1018.3 |
| 20260906154516 | 60 | 315 | 5.0 | 9.0 | 0.00 | 0.05 | 0.02 | 89 | 1018.2 |
| 20260906154036 | 59 | 315 | 5.0 | 8.0 | 0.00 | 0.05 | 0.02 | 90 | 1018.3 |
| 20260906153516 | 59 | 315 | 5.0 | 9.0 | 0.00 | 0.05 | 0.02 | 90 | 1018.3 |
| 20260906153016 | 59 | 315 | 5.0 | 10.0 | 0.00 | 0.05 | 0.02 | 88 | 1018.2 |
| 20260906152636 | 60 | 315 | 3.0 | 7.0 | 0.00 | 0.05 | 0.02 | 89 | 1018.2 |
| 20260906152016 | 59 | 293 | 2.0 | 7.0 | 0.00 | 0.05 | 0.02 | 91 | 1018.2 |
| 20260906151516 | 58 | 315 | 2.0 | 6.0 | 0.00 | 0.05 | 0.02 | 91 | 1018.3 |
| 20260906151016 | 58 | 293 | 2.0 | 4.0 | 0.00 | 0.05 | 0.02 | 92 | 1018.3 |
| 20260906150516 | 58 | 338 | 2.0 | 5.0 | 0.00 | 0.05 | 0.02 | 91 | 1018.4 |
| 20260906150016 | 58 | 315 | 3.0 | 7.0 | 0.00 | 0.05 | 0.02 | 91 | 1018.3 |
| 20260906145536 | 58 | 315 | 3.0 | 7.0 | 0.00 | 0.05 | 0.02 | 92 | 1018.3 |
| 20260906145036 | 59 | 315 | 3.0 | 5.0 | 0.00 | 0.05 | 0.02 | 91 | 1018.3 |
| 20260906144516 | 59 | 315 | 1.0 | 5.0 | 0.00 | 0.05 | 0.02 | 89 | 1018.2 |
| 20260906144016 | 58 | 270 | 1.0 | 7.0 | 0.00 | 0.05 | 0.02 | 89 | 1018.1 |
| 20260906143516 | 58 | 0.0 | 3.0 | 0.00 | 0.05 | 0.02 | 91 | 1018.1 | |
| 20260906143016 | 58 | 315 | 2.0 | 6.0 | 0.00 | 0.05 | 0.02 | 91 | 1018.1 |
| 20260906142516 | 59 | 315 | 2.0 | 7.0 | 0.00 | 0.05 | 0.02 | 91 | 1018.1 |
| 20260906142016 | 59 | 315 | 4.0 | 8.0 | 0.00 | 0.05 | 0.02 | 87 | 1018.1 |
| 20260906141516 | 60 | 135 | 2.0 | 6.0 | 0.00 | 0.05 | 0.02 | 83 | 1018.0 |
| 20260906141016 | 60 | 135 | 1.0 | 4.0 | 0.00 | 0.05 | 0.02 | 85 | 1018.0 |
| 20260906140516 | 60 | 90 | 1.0 | 4.0 | 0.00 | 0.05 | 0.02 | 85 | 1018.0 |
| 20260906140016 | 60 | 68 | 1.0 | 4.0 | 0.00 | 0.05 | 0.02 | 86 | 1018.0 |
| 20260906135536 | 59 | 0.0 | 2.0 | 0.00 | 0.05 | 0.02 | 88 | 1017.9 | |
| 20260906135036 | 59 | 0.0 | 2.0 | 0.00 | 0.05 | 0.02 | 88 | 1017.9 | |
| 20260906134536 | 59 | 68 | 1.0 | 5.0 | 0.00 | 0.05 | 0.02 | 89 | 1017.9 |
| 20260906134056 | 59 | 293 | 2.0 | 5.0 | 0.00 | 0.05 | 0.02 | 89 | 1017.8 |
| 20260906133516 | 58 | 293 | 1.0 | 4.0 | 0.00 | 0.05 | 0.02 | 91 | 1017.7 |
| 20260906133016 | 58 | 293 | 2.0 | 6.0 | 0.00 | 0.05 | 0.02 | 93 | 1017.7 |
| 20260906132516 | 58 | 315 | 1.0 | 3.0 | 0.00 | 0.05 | 0.02 | 93 | 1017.7 |
| 20260906132016 | 58 | 315 | 1.0 | 3.0 | 0.00 | 0.05 | 0.02 | 95 | 1017.7 |
| 20260906131516 | 57 | 0.0 | 2.0 | 0.00 | 0.05 | 0.02 | 96 | 1017.7 | |
| 20260906131016 | 57 | 315 | 2.0 | 4.0 | 0.00 | 0.05 | 0.02 | 95 | 1017.8 |
| 20260906130536 | 57 | 315 | 1.0 | 3.0 | 0.00 | 0.05 | 0.02 | 95 | 1017.7 |
| 20260906130036 | 57 | 0.0 | 2.0 | 0.00 | 0.05 | 0.02 | 96 | 1017.7 | |
| 20260906125516 | 56 | 315 | 1.0 | 3.0 | 0.00 | 0.05 | 0.02 | 99 | 1017.8 |
| 20260906125016 | 56 | 0.0 | 2.0 | 0.00 | 0.05 | 0.02 | 99 | 1017.8 | |
| 20260906124516 | 55 | 0.0 | 0.0 | 0.00 | 0.05 | 0.02 | 99 | 1017.9 | |
| 20260906124016 | 55 | 0.0 | 0.0 | 0.00 | 0.05 | 0.02 | 99 | 1017.8 | |
| 20260906123516 | 55 | 0.0 | 1.0 | 0.00 | 0.05 | 0.02 | 99 | 1017.7 | |
| 20260906123016 | 55 | 315 | 1.0 | 3.0 | 0.00 | 0.05 | 0.02 | 99 | 1017.6 |
| 20260906122516 | 55 | 315 | 1.0 | 3.0 | 0.00 | 0.05 | 0.02 | 99 | 1017.5 |
| 20260906122016 | 55 | 0.0 | 2.0 | 0.00 | 0.05 | 0.02 | 99 | 1017.6 | |
| 20260906121516 | 55 | 0.0 | 3.0 | 0.00 | 0.05 | 0.02 | 99 | 1017.5 | |
| 20260906121016 | 55 | 0.0 | 3.0 | 0.00 | 0.05 | 0.02 | 99 | 1017.5 | |
| 20260906120536 | 55 | 315 | 1.0 | 3.0 | 0.00 | 0.05 | 0.02 | 99 | 1017.5 |
| 20260906120016 | 55 | 293 | 1.0 | 3.0 | 0.00 | 0.05 | 0.02 | 100 | 1017.5 |
| 20260906115516 | 55 | 0.0 | 1.0 | 0.00 | 0.05 | 0.02 | 100 | 1017.4 | |
| 20260906115016 | 55 | 293 | 1.0 | 2.0 | 0.00 | 0.05 | 0.02 | 100 | 1017.3 |
| 20260906114536 | 55 | 0.0 | 2.0 | 0.00 | 0.05 | 0.02 | 100 | 1017.3 | |
| 20260906114036 | 55 | 0.0 | 2.0 | 0.00 | 0.05 | 0.02 | 100 | 1017.2 | |
| 20260906113516 | 54 | 0.0 | 0.0 | 0.00 | 0.05 | 0.02 | 100 | 1017.1 | |
| 20260906113016 | 54 | 0.0 | 0.0 | 0.00 | 0.05 | 0.02 | 100 | 1017.1 | |
| 20260906112516 | 54 | 0.0 | 1.0 | 0.00 | 0.05 | 0.02 | 100 | 1017.2 | |
| 20260906112016 | 54 | 0.0 | 0.0 | 0.00 | 0.05 | 0.02 | 100 | 1017.2 | |
| 20260906111516 | 54 | 0.0 | 0.0 | 0.00 | 0.05 | 0.02 | 100 | 1017.2 | |
| 20260906111016 | 54 | 0.0 | 0.0 | 0.00 | 0.05 | 0.02 | 100 | 1017.0 | |
| 20260906110016 | 54 | 0.0 | 0.0 | 0.00 | 0.05 | 0.02 | 100 | 1016.8 | |
| 20260906105516 | 54 | 0.0 | 1.0 | 0.00 | 0.05 | 0.02 | 100 | 1016.8 | |
| 20260906105016 | 54 | 0.0 | 0.0 | 0.00 | 0.05 | 0.02 | 100 | 1016.8 | |
| 20260906104516 | 54 | 0.0 | 1.0 | 0.00 | 0.05 | 0.02 | 100 | 1016.6 | |
| 20260906104036 | 54 | 0.0 | 1.0 | 0.00 | 0.05 | 0.02 | 100 | 1016.6 | |
| 20260906103536 | 54 | 0.0 | 0.0 | 0.00 | 0.05 | 0.02 | 100 | 1016.6 | |
| 20260906103016 | 54 | 0.0 | 0.0 | 0.00 | 0.05 | 0.02 | 100 | 1016.6 | |
| 20260906102516 | 54 | 0.0 | 0.0 | 0.00 | 0.05 | 0.02 | 100 | 1016.6 | |
| 20260906102016 | 54 | 0.0 | 0.0 | 0.00 | 0.05 | 0.02 | 100 | 1016.5 | |
| 20260906101516 | 54 | 0.0 | 1.0 | 0.00 | 0.05 | 0.02 | 100 | 1016.5 | |
| 20260906101016 | 54 | 0.0 | 1.0 | 0.00 | 0.05 | 0.02 | 100 | 1016.6 | |
| 20260906100516 | 53 | 0.0 | 0.0 | 0.00 | 0.05 | 0.02 | 100 | 1016.5 | |
| 20260906100056 | 53 | 0.0 | 0.0 | 0.00 | 0.05 | 0.02 | 99 | 1016.4 | |
| 20260906095516 | 53 | 0.0 | 0.0 | 0.00 | 0.05 | 0.02 | 99 | 1016.3 | |
| 20260906095036 | 54 | 0.0 | 0.0 | 0.00 | 0.05 | 0.02 | 99 | 1016.3 | |
| 20260906094516 | 54 | 0.0 | 0.0 | 0.00 | 0.05 | 0.02 | 99 | 1016.3 | |
| 20260906094016 | 54 | 0.0 | 0.0 | 0.00 | 0.05 | 0.02 | 99 | 1016.3 | |
| 20260906093516 | 54 | 0.0 | 1.0 | 0.00 | 0.05 | 0.02 | 99 | 1016.3 | |
| 20260906093016 | 54 | 0.0 | 1.0 | 0.00 | 0.05 | 0.02 | 99 | 1016.2 | |
| 20260906092516 | 54 | 0.0 | 0.0 | 0.00 | 0.05 | 0.02 | 99 | 1016.2 | |
| 20260906092036 | 54 | 0.0 | 0.0 | 0.00 | 0.05 | 0.02 | 99 | 1016.1 | |
| 20260906091516 | 54 | 0.0 | 0.0 | 0.00 | 0.05 | 0.02 | 99 | 1016.0 | |
| 20260906091016 | 54 | 0.0 | 0.0 | 0.00 | 0.05 | 0.02 | 99 | 1016.0 | |
| 20260906090516 | 54 | 0.0 | 1.0 | 0.00 | 0.05 | 0.02 | 99 | 1015.8 | |
| 20260906090016 | 54 | 0.0 | 0.0 | 0.00 | 0.05 | 0.02 | 99 | 1015.8 | |
| 20260906085516 | 54 | 0.0 | 0.0 | 0.00 | 0.05 | 0.02 | 99 | 1015.8 | |
| 20260906085036 | 54 | 0.0 | 0.0 | 0.00 | 0.05 | 0.02 | 99 | 1015.9 | |
| 20260906084516 | 54 | 0.0 | 0.0 | 0.00 | 0.05 | 0.02 | 99 | 1015.9 | |
| 20260906084016 | 54 | 0.0 | 0.0 | 0.00 | 0.05 | 0.02 | 99 | 1015.9 | |
| 20260906083516 | 54 | 0.0 | 0.0 | 0.00 | 0.05 | 0.02 | 99 | 1015.9 | |
| 20260906083016 | 54 | 0.0 | 0.0 | 0.00 | 0.05 | 0.02 | 99 | 1015.8 | |
| 20260906082516 | 54 | 0.0 | 1.0 | 0.00 | 0.05 | 0.02 | 100 | 1015.9 | |
| 20260906082016 | 54 | 0.0 | 0.0 | 0.01 | 0.05 | 0.02 | 100 | 1015.8 | |
| 20260906081516 | 54 | 0.0 | 1.0 | 0.01 | 0.05 | 0.02 | 100 | 1015.8 | |
| 20260906081016 | 54 | 0.0 | 0.0 | 0.01 | 0.05 | 0.02 | 100 | 1015.8 | |
| 20260906080516 | 54 | 0.0 | 0.0 | 0.01 | 0.05 | 0.02 | 100 | 1015.8 | |
| 20260906080016 | 54 | 0.0 | 0.0 | 0.01 | 0.05 | 0.02 | 100 | 1015.7 | |
| 20260906075516 | 54 | 0.0 | 0.0 | 0.01 | 0.05 | 0.02 | 100 | 1015.7 | |
| 20260906075016 | 54 | 0.0 | 0.0 | 0.01 | 0.05 | 0.02 | 100 | 1015.7 | |
| 20260906074516 | 54 | 0.0 | 0.0 | 0.01 | 0.05 | 0.02 | 100 | 1015.7 | |
| 20260906074016 | 54 | 0.0 | 0.0 | 0.01 | 0.05 | 0.02 | 100 | 1015.7 | |
| 20260906073516 | 54 | 0.0 | 0.0 | 0.01 | 0.05 | 0.02 | 100 | 1015.7 | |
| 20260906073016 | 54 | 0.0 | 0.0 | 0.01 | 0.05 | 0.02 | 100 | 1015.6 | |
| 20260906072516 | 54 | 0.0 | 0.0 | 0.01 | 0.05 | 0.02 | 100 | 1015.6 | |
| 20260906072056 | 54 | 0.0 | 0.0 | 0.00 | 0.04 | 0.01 | 100 | 1015.6 | |
| 20260906071516 | 54 | 0.0 | 0.0 | 0.00 | 0.04 | 0.01 | 100 | 1015.6 | |
| 20260906071016 | 54 | 0.0 | 0.0 | 0.00 | 0.04 | 0.01 | 100 | 1015.5 | |
| 20260906070516 | 54 | 0.0 | 0.0 | 0.00 | 0.04 | 0.01 | 100 | 1015.6 | |
| 20260906070016 | 54 | 0.0 | 0.0 | 0.00 | 0.04 | 0.01 | 100 | 1015.6 | |
| 20260906065516 | 54 | 0.0 | 0.0 | 0.00 | 0.04 | 0.01 | 100 | 1015.6 | |
| 20260906065016 | 54 | 0.0 | 0.0 | 0.00 | 0.04 | 0.01 | 100 | 1015.5 | |
| 20260906064536 | 54 | 0.0 | 0.0 | 0.00 | 0.04 | 0.01 | 100 | 1015.5 | |
| 20260906064016 | 54 | 0.0 | 0.0 | 0.00 | 0.04 | 0.01 | 99 | 1015.6 | |
| 20260906063536 | 54 | 0.0 | 0.0 | 0.00 | 0.04 | 0.01 | 99 | 1015.6 | |
| 20260906063016 | 54 | 0.0 | 0.0 | 0.00 | 0.04 | 0.01 | 99 | 1015.6 | |
| 20260906062516 | 54 | 0.0 | 0.0 | 0.00 | 0.04 | 0.01 | 99 | 1015.6 | |
| 20260906062016 | 54 | 0.0 | 0.0 | 0.00 | 0.04 | 0.01 | 99 | 1015.5 | |
| 20260906061516 | 54 | 0.0 | 0.0 | 0.00 | 0.04 | 0.01 | 99 | 1015.5 | |
| 20260906061016 | 54 | 0.0 | 0.0 | 0.00 | 0.04 | 0.01 | 99 | 1015.5 | |
| 20260906060516 | 54 | 0.0 | 0.0 | 0.00 | 0.04 | 0.01 | 99 | 1015.5 | |
| 20260906060036 | 54 | 0.0 | 0.0 | 0.00 | 0.04 | 0.01 | 99 | 1015.6 | |
| 20260906055516 | 54 | 0.0 | 0.0 | 0.00 | 0.04 | 0.01 | 99 | 1015.6 | |
| 20260906055016 | 54 | 0.0 | 0.0 | 0.00 | 0.04 | 0.01 | 99 | 1015.6 | |
| 20260906054516 | 54 | 0.0 | 0.0 | 0.00 | 0.04 | 0.01 | 99 | 1015.7 | |
| 20260906054016 | 54 | 0.0 | 0.0 | 0.00 | 0.04 | 0.01 | 99 | 1015.6 | |
| 20260906053516 | 54 | 0.0 | 0.0 | 0.00 | 0.04 | 0.01 | 99 | 1015.6 | |
| 20260906053016 | 54 | 0.0 | 0.0 | 0.00 | 0.04 | 0.01 | 99 | 1015.6 | |
| 20260906052516 | 54 | 0.0 | 0.0 | 0.00 | 0.04 | 0.01 | 99 | 1015.7 | |
| 20260906052016 | 54 | 0.0 | 0.0 | 0.00 | 0.04 | 0.01 | 99 | 1015.6 | |
| 20260906051516 | 54 | 0.0 | 0.0 | 0.01 | 0.04 | 0.01 | 99 | 1015.7 | |
| 20260906051036 | 54 | 0.0 | 0.0 | 0.01 | 0.04 | 0.01 | 99 | 1015.7 | |
| 20260906050516 | 54 | 0.0 | 0.0 | 0.01 | 0.04 | 0.01 | 99 | 1015.7 | |
| 20260906050016 | 54 | 0.0 | 0.0 | 0.01 | 0.04 | 0.01 | 99 | 1015.9 | |
| 20260906045516 | 55 | 0.0 | 0.0 | 0.01 | 0.04 | 0.01 | 98 | 1015.9 | |
| 20260906045016 | 55 | 0.0 | 1.0 | 0.01 | 0.04 | 0.01 | 98 | 1015.8 | |
| 20260906044516 | 55 | 0.0 | 0.0 | 0.01 | 0.04 | 0.01 | 98 | 1015.7 | |
| 20260906044016 | 55 | 0.0 | 0.0 | 0.01 | 0.04 | 0.01 | 98 | 1015.7 | |
| 20260906043516 | 55 | 0.0 | 0.0 | 0.01 | 0.04 | 0.01 | 98 | 1015.8 | |
| 20260906043016 | 55 | 0.0 | 0.0 | 0.01 | 0.04 | 0.01 | 98 | 1015.9 | |
| 20260906042516 | 55 | 0.0 | 0.0 | 0.01 | 0.04 | 0.01 | 97 | 1016.0 | |
| 20260906042016 | 55 | 0.0 | 0.0 | 0.01 | 0.04 | 0.01 | 97 | 1015.9 | |
| 20260906041516 | 55 | 0.0 | 0.0 | 0.01 | 0.03 | 0.00 | 97 | 1015.9 | |
| 20260906041016 | 55 | 0.0 | 0.0 | 0.01 | 0.03 | 0.00 | 96 | 1015.9 | |
| 20260906040516 | 55 | 90 | 1.0 | 3.0 | 0.01 | 0.03 | 0.00 | 96 | 1015.9 |
| 20260906040016 | 55 | 225 | 1.0 | 3.0 | 0.01 | 0.03 | 0.03 | 96 | 1015.9 |
| 20260906035516 | 55 | 0.0 | 2.0 | 0.01 | 0.03 | 0.03 | 97 | 1015.9 | |
| 20260906035016 | 55 | 0.0 | 2.0 | 0.01 | 0.03 | 0.03 | 97 | 1015.9 | |
| 20260906034516 | 55 | 0.0 | 1.0 | 0.01 | 0.03 | 0.03 | 97 | 1015.9 | |
| 20260906034016 | 55 | 293 | 1.0 | 2.0 | 0.01 | 0.03 | 0.03 | 97 | 1015.9 |
| 20260906033536 | 56 | 0.0 | 2.0 | 0.01 | 0.03 | 0.03 | 96 | 1015.8 | |
| 20260906033033 | 56 | 0.0 | 1.0 | 0.01 | 0.03 | 0.03 | 95 | 1015.7 | |
| 20260906032516 | 56 | 225 | 1.0 | 3.0 | 0.01 | 0.03 | 0.03 | 95 | 1015.6 |
| 20260906032016 | 56 | 180 | 1.0 | 3.0 | 0.01 | 0.03 | 0.03 | 95 | 1015.7 |
| 20260906031516 | 56 | 135 | 1.0 | 4.0 | 0.00 | 0.02 | 0.02 | 94 | 1015.6 |
| 20260906031036 | 57 | 158 | 1.0 | 4.0 | 0.00 | 0.02 | 0.02 | 93 | 1015.6 |
| 20260906030516 | 57 | 158 | 1.0 | 3.0 | 0.00 | 0.02 | 0.02 | 93 | 1015.6 |
| 20260906030016 | 57 | 135 | 2.0 | 5.0 | 0.00 | 0.02 | 0.02 | 93 | 1015.6 |
| 20260906025516 | 58 | 90 | 3.0 | 7.0 | 0.00 | 0.02 | 0.02 | 93 | 1015.6 |
| 20260906025016 | 58 | 90 | 2.0 | 5.0 | 0.00 | 0.02 | 0.02 | 94 | 1015.5 |
| 20260906024516 | 58 | 113 | 4.0 | 8.0 | 0.00 | 0.02 | 0.02 | 93 | 1015.4 |
| 20260906024016 | 58 | 113 | 3.0 | 9.0 | 0.00 | 0.02 | 0.02 | 94 | 1015.4 |
| 20260906023516 | 58 | 113 | 2.0 | 4.0 | 0.00 | 0.02 | 0.02 | 94 | 1015.3 |
| 20260906023036 | 58 | 0.0 | 1.0 | 0.00 | 0.02 | 0.02 | 94 | 1015.4 | |
| 20260906022516 | 58 | 0.0 | 1.0 | 0.00 | 0.02 | 0.02 | 93 | 1015.3 | |
| 20260906022036 | 58 | 203 | 1.0 | 2.0 | 0.00 | 0.02 | 0.02 | 93 | 1015.3 |
| 20260906021516 | 58 | 0.0 | 1.0 | 0.00 | 0.02 | 0.02 | 93 | 1015.3 | |
| 20260906021016 | 59 | 203 | 1.0 | 4.0 | 0.00 | 0.02 | 0.02 | 92 | 1015.2 |
| 20260906020516 | 59 | 248 | 1.0 | 4.0 | 0.00 | 0.02 | 0.02 | 92 | 1015.0 |
| 20260906020016 | 59 | 90 | 2.0 | 6.0 | 0.00 | 0.02 | 0.02 | 92 | 1015.0 |
| 20260906015516 | 58 | 225 | 1.0 | 6.0 | 0.00 | 0.02 | 0.02 | 92 | 1015.1 |
| 20260906015016 | 59 | 68 | 1.0 | 6.0 | 0.00 | 0.02 | 0.02 | 93 | 1015.1 |
| 20260906014516 | 59 | 90 | 1.0 | 3.0 | 0.00 | 0.02 | 0.02 | 93 | 1015.0 |
| 20260906014036 | 59 | 113 | 2.0 | 5.0 | 0.00 | 0.02 | 0.02 | 94 | 1015.1 |
| 20260906013516 | 59 | 90 | 2.0 | 8.0 | 0.00 | 0.02 | 0.02 | 94 | 1015.1 |
| 20260906013036 | 59 | 158 | 1.0 | 3.0 | 0.00 | 0.02 | 0.02 | 94 | 1015.1 |
| 20260906012516 | 59 | 113 | 1.0 | 4.0 | 0.00 | 0.02 | 0.02 | 94 | 1015.0 |
| 20260906012016 | 59 | 315 | 1.0 | 6.0 | 0.00 | 0.02 | 0.02 | 94 | 1015.1 |
| 20260906011536 | 59 | 45 | 1.0 | 5.0 | 0.00 | 0.02 | 0.02 | 93 | 1015.1 |
| 20260906011016 | 59 | 68 | 2.0 | 7.0 | 0.00 | 0.02 | 0.02 | 93 | 1015.1 |
| 20260906010536 | 59 | 68 | 2.0 | 5.0 | 0.00 | 0.02 | 0.02 | 93 | 1015.0 |
| 20260906010016 | 60 | 90 | 2.0 | 6.0 | 0.00 | 0.02 | 0.02 | 93 | 1015.0 |
| 20260906005516 | 60 | 90 | 2.0 | 7.0 | 0.00 | 0.02 | 0.02 | 92 | 1015.0 |
| 20260906005016 | 60 | 68 | 2.0 | 10.0 | 0.00 | 0.02 | 0.02 | 92 | 1015.1 |
| 20260906004516 | 60 | 68 | 1.0 | 7.0 | 0.00 | 0.02 | 0.02 | 92 | 1015.2 |
| 20260906004016 | 60 | 315 | 2.0 | 5.0 | 0.00 | 0.02 | 0.02 | 92 | 1015.1 |
| 20260906003516 | 60 | 113 | 1.0 | 2.0 | 0.00 | 0.02 | 0.02 | 92 | 1015.0 |
| 20260906003016 | 60 | 293 | 1.0 | 4.0 | 0.00 | 0.02 | 0.02 | 93 | 1015.0 |
| 20260906002516 | 60 | 0.0 | 2.0 | 0.00 | 0.02 | 0.02 | 94 | 1015.0 | |
| 20260906002036 | 60 | 68 | 2.0 | 6.0 | 0.00 | 0.02 | 0.02 | 96 | 1014.9 |
| 20260906001516 | 60 | 0.0 | 0.0 | 0.00 | 0.02 | 0.02 | 97 | 1014.9 | |
| 20260906001016 | 60 | 0.0 | 0.0 | 0.00 | 0.02 | 0.02 | 97 | 1014.9 | |
| 20260906000516 | 60 | 0.0 | 0.0 | 0.00 | 0.02 | 0.02 | 97 | 1014.9 | |
| 20260906000016 | 60 | 0.0 | 0.0 | 0.00 | 0.02 | 0.02 | 97 | 1014.8 | |
| 20260905235536 | 60 | 0.0 | 0.0 | 0.00 | 0.02 | 0.02 | 97 | 1014.9 | |
| 20260905235016 | 60 | 0.0 | 0.0 | 0.00 | 0.02 | 0.02 | 97 | 1014.8 | |
| 20260905234516 | 60 | 0.0 | 0.0 | 0.00 | 0.02 | 0.02 | 97 | 1014.7 | |
| 20260905234016 | 60 | 0.0 | 0.0 | 0.00 | 0.02 | 0.02 | 96 | 1014.5 | |
| 20260905233516 | 60 | 0.0 | 0.0 | 0.00 | 0.02 | 0.02 | 96 | 1014.4 | |
| 20260905233016 | 60 | 0.0 | 0.0 | 0.00 | 0.02 | 0.02 | 96 | 1014.4 | |
| 20260905232516 | 61 | 0.0 | 0.0 | 0.00 | 0.02 | 0.02 | 95 | 1014.5 | |
| 20260905232016 | 61 | 0.0 | 1.0 | 0.00 | 0.02 | 0.02 | 95 | 1014.5 | |
| 20260905231556 | 61 | 315 | 1.0 | 4.0 | 0.00 | 0.02 | 0.02 | 95 | 1014.4 |
| 20260905231016 | 61 | 293 | 1.0 | 3.0 | 0.00 | 0.02 | 0.02 | 95 | 1014.3 |
| 20260905230536 | 61 | 0.0 | 1.0 | 0.00 | 0.02 | 0.02 | 95 | 1014.3 | |
| 20260905230016 | 61 | 315 | 2.0 | 5.0 | 0.00 | 0.02 | 0.02 | 95 | 1014.3 |
| 20260905225516 | 61 | 315 | 2.0 | 3.0 | 0.00 | 0.02 | 0.02 | 94 | 1014.2 |
| 20260905225016 | 62 | 0.0 | 2.0 | 0.00 | 0.02 | 0.02 | 94 | 1014.2 | |
| 20260905224516 | 62 | 270 | 1.0 | 3.0 | 0.00 | 0.02 | 0.02 | 94 | 1014.2 |
| 20260905224016 | 62 | 0.0 | 1.0 | 0.00 | 0.02 | 0.02 | 94 | 1014.3 |